Simultaneous Nadir Overpasses (SNOs) Predictions

Prediction of SNOs between METOP-A and TERRA Satellite Orbit:

Table of predicted SNOs for the next 14.0 days since TLE Epoch: 4/5/2013
Index Date (METOP-A) Time (METOP-A) Lat,Lon (METOP-A) SZA (METOP-A ) Date (TERRA) Time (TERRA) Lat,Lon (TERRA) SZA (TERRA ) Distance(km) Time Diff (sec)
1 04/06/2013 09:09:16 81.29, 89.80 77.46 04/06/2013 09:09:31 81.29, 89.69 77.45 1.88 15
2 04/06/2013 09:59:57 -81.29,-102.86 102.56 04/06/2013 09:58:58 -81.29,-102.76 102.58 1.69 59
3 04/09/2013 04:43:42 81.29, 156.29 76.44 04/09/2013 04:43:47 81.29, 156.10 76.42 3.29 5
4 04/09/2013 05:34:22 -81.29, -36.37 103.57 04/09/2013 05:33:13 -81.29, -36.33 103.61 0.98 69
5 04/11/2013 23:27:28 -81.28, 54.76 104.63 04/11/2013 23:28:36 -81.28, 54.68 104.62 1.60 68
6 04/1
